Regional Weather Roundup
Issued by NWS Albany, NY

Home | Current Version | Previous Version | Graphics & Text | Print | Product List | Glossary Off
Versions: 1 2 3 4 5 6 7 8 9 10 11 12 13 14 15 16 17 18 19 20 21 22 23 24 25 26 27 28 29 30 31 32 33 34 35 36 37 38 39 40 41 42 43 44 45 46 47 48 49 50

000
ASUS41 KALY 192110
RWRALY

NEW YORK STATE HOURLY WEATHER ROUNDUP
NATIONAL WEATHER SERVICE ALBANY NY
400 PM EST THU JAN 19 2017

NOTE: "FAIR" INDICATES FEW OR NO CLOUDS BELOW 12,000 FEET WITH NO
SIGNIFICANT WEATHER AND/OR NO OBSTRUCTIONS TO VISIBILITY.

NYZ032-033-038>043-046>054-057>066-NYZ062>081-082-084-192200-
EAST


CITY           SKY/WX    TMP DP  RH WIND       PRES   REMARKS
ALBANY         CLOUDY    40  33  76 W15       29.99F WCI  32
GLENS FALLS    CLOUDY    42  34  73 CALM      29.96F
POUGHKEEPSIE   MOCLDY    44  33  65 NW6       29.97S
NEWBURGH       MOCLDY    45  36  70 VRB6      29.98S
MONTGOMERY     CLOUDY    46  34  62 W8        29.95S
WHITE PLAINS   MOCLDY    44  33  65 W5        29.97S
ISLIP          CLOUDY    46  36  68 NW9       29.97R
NEW YORK CITY  MOCLDY    46  33  60 NW9       29.99S
CENTRAL PARK   CLOUDY    44  33  65 NW8       30.01F
$$

NYZ005>009-017-018-044>046-055-056-192200-
CENTRAL


CITY           SKY/WX    TMP DP  RH WIND       PRES   REMARKS
FULTON         CLOUDY    37  35  92 W3        30.01S
SYRACUSE       CLOUDY    36  34  92 W6        30.01S WCI  31
ROME           CLOUDY    36  35  96 W6        30.02S WCI  31
ELMIRA         CLOUDY    40  33  76 NE3       29.98S
BINGHAMTON     CLOUDY    34  31  88 N6        29.95F WCI  29
MONTICELLO     CLOUDY    37  30  75 NW6       29.97S WCI  33
$$

NYZ026>034-041>043-087-192200-
NORTH


CITY           SKY/WX    TMP DP  RH WIND       PRES   REMARKS
WATERTOWN      CLOUDY    37  36  96 SW7       30.01R FOG     WCI  32
FORT DRUM      NOT AVBL
OGDENSBURG     LGT RAIN  37  35  91 CALM      30.00S
MASSENA        CLOUDY    37  33  85 SW3       30.01R
SARANAC LAKE   LGT SNOW  33  30  88 CALM      29.93R VSB 1
PLATTSBURGH    CLOUDY    39  29  67 NW7       29.98R WCI  34
$$

NYZ001>004-010>016-019>021-085-192200-
WEST


CITY           SKY/WX    TMP DP  RH WIND       PRES   REMARKS
NIAGARA FALLS  CLOUDY    36  31  82 SW10      30.00R HAZE    WCI  28
BUFFALO        DRIZZLE   34  32  92 SW8       30.00R FOG     WCI  27
DUNKIRK        CLOUDY    34  34 100 VRB3      30.00F FOG
JAMESTOWN      CLOUDY    36  30  80 S5        29.95F WCI  32
WELLSVILLE     CLOUDY    37  32  82 S6        29.96S WCI  32
ROCHESTER      CLOUDY    37  32  82 W6        30.01S WCI  32
PENN YAN       CLOUDY    36  32  85 E5        29.99F WCI  32
$$

             KEY
       WCI = WIND CHILL INDEX
       VSB = VISIBILITY
       HX  = HEAT INDEX
$$



USA.gov is the U.S. government's official web portal to all federal, state and local government web resources and services.